Detalii statie TOMOIOAGA GABRIEL [00001D05]

Toti senzorii

Date Temperatura solului [C]Precipitatii [mm]Voltaj baterie [mV]Leaf Wetness [Min]HC Air temperature [C]HC Relative humidity [%]Punctul de roua [C]
medieminmaxsumaultimatimpmedieminmaxmediemediemin
2017-12-10 22:00:00 0 6904 0.37 0.37 0.37 0 0 0
2017-12-10 23:00:00 0 6894 0.37 0.37 0.37 0 0 0
2017-12-11 00:00:00 0 6894 0.37 0.37 0.37 0 0 0
2017-12-11 01:00:00 0 6884 0.37 0.37 0.37 0 0 0
2017-12-11 02:00:00 0 6874 0.37 0.37 0.37 0 0 0
2017-12-11 03:00:00 0 6874 0.37 0.37 0.37 0 0 0
2017-12-11 04:00:00 3.8 6874 0.37 0.37 0.37 0 0 0
2017-12-11 05:00:00 2.2 6864 0.37 0.37 0.37 0 0 0
2017-12-11 06:00:00 1.4 6864 0.37 0.37 0.37 0 0 0
2017-12-11 07:00:00 1.2 6854 0.37 0.37 0.37 0 0 0
2017-12-11 08:00:00 1.8 6854 0.37 0.37 0.37 0 0 0
2017-12-11 09:00:00 0.8 6854 0.37 0.37 0.37 0 0 0
2017-12-11 10:00:00 0.2 6854 0.37 0.37 0.37 0 0 0
2017-12-11 11:00:00 0.2 6914 0.37 0.37 0.37 0 0 0
2017-12-11 12:00:00 0 6982 0.37 0.37 0.37 0 0 0
2017-12-11 13:00:00 0 7166 0.37 0.37 0.37 0 0 0
2017-12-11 14:00:00 0 7040 0.37 0.37 0.37 0 0 0
2017-12-11 15:00:00 0 6992 0.37 0.37 0.37 0 0 0
2017-12-11 16:00:00 0 6942 0.37 0.37 0.37 0 0 0
2017-12-11 17:00:00 0 6894 0.37 0.37 0.37 0 0 0
2017-12-11 18:00:00 0 6884 0.37 0.37 0.37 0 0 0
2017-12-11 19:00:00 0 6864 0.37 0.37 0.37 0 0 0
2017-12-11 20:00:00 0 6864 0.37 0.37 0.37 0 0 0
2017-12-11 21:00:00 0 6864 0.37 0.37 0.37 0 0 0
2017-12-11 22:00:00 0 6854 0.37 0.37 0.37 0 0 0
2017-12-11 23:00:00 0 6844 0.37 0.37 0.37 0 0 0
2017-12-12 00:00:00 0 6844 0.37 0.37 0.37 0 0 0
2017-12-12 01:00:00 0 6834 0.37 0.37 0.37 0 0 0
2017-12-12 02:00:00 0 6826 0.37 0.37 0.37 0 0 0
2017-12-12 03:00:00 0 6834 0.37 0.37 0.37 0 0 0
2017-12-12 04:00:00 0 6826 0.37 0.37 0.37 0 0 0
2017-12-12 05:00:00 0 6826 0.37 0.37 0.37 0 0 0
2017-12-12 06:00:00 0 6816 0.37 0.37 0.37 0 0 0
2017-12-12 07:00:00 0 6816 0.37 0.37 0.37 0 0 0
2017-12-12 08:00:00 0 6806 0.37 0.37 0.37 0 0 0
2017-12-12 09:00:00 0 6844 0.37 0.37 0.37 0 0 0
2017-12-12 10:00:00 0 7088 0.37 0.37 0.37 0 0 0
2017-12-12 11:00:00 0 7010 0.37 0.37 0.37 0 0 0
2017-12-12 12:00:00 0 7010 0.37 0.37 0.37 0 0 0
2017-12-12 13:00:00 0 7020 0.37 0.37 0.37 0 0 0
2017-12-12 14:00:00 0 7000 0.37 0.37 0.37 0 0 0
2017-12-12 15:00:00 0 6952 0.37 0.37 0.37 0 0 0
2017-12-12 16:00:00 0 6914 0.37 0.37 0.37 0 0 0
2017-12-12 17:00:00 0 6884 0.37 0.37 0.37 0 0 0
2017-12-12 18:00:00 0 6864 0.37 0.37 0.37 0 0 0
2017-12-12 19:00:00 0 6864 0.37 0.37 0.37 0 0 0
2017-12-12 20:00:00 0 6854 0.37 0.37 0.37 0 0 0
2017-12-12 21:00:00 0 6834 0.37 0.37 0.37 0 0 0